Ft Lauderdale, FL

1:42 AM EDT on May 30, 2017 (GMT -0400)
Fort Lauderdale-Hollywood International

Weather History for KFLL - October, 2012

Change the Weather History Date:

Friday, October 19, 2012

  Actual Average Record
Temperature  
Mean Temperature 81 °F 80 °F  
Max Temperature 85 °F 86 °F 92 °F (1989)
Min Temperature 76 °F 75 °F 52 °F (1927)
Degree Days  
Heating Degree Days 0 0  
Month to date heating degree days 0 0  
Since 1 July heating degree days 0 0  
Cooling Degree Days 16 15  
Month to date cooling degree days 317 313  
Year to date cooling degree days 4031 4025  
Growing Degree Days 30 (Base 50)    
Moisture  
Dew Point 74 °F    
Average Humidity 83    
Maximum Humidity 100    
Minimum Humidity 65    
Precipitation  
Precipitation 0.04 in 0.17 in 7.54 in (1924)
Month to date precipitation 7.32 4.82  
Year to date precipitation 58.24 54.48  
Snow  
Snow 0.00 in - - ()
Month to date snowfall 0.0  
Since 1 July snowfall 0.0  
Since 1 September snowfall 0.0  
Snow Depth 0.00 in    
Sea Level Pressure  
Sea Level Pressure 29.86 in    
Wind  
Wind Speed 4 mph (South)    
Max Wind Speed 16 mph    
Max Gust Speed 18 mph    
Visibility 10 miles    
Events Rain , Thunderstorm    
T = Trace of Precipitation, MM = Missing Value Source: NWS Daily Summary

Daily Weather History Graph

Daily Weather History Graph

Search for Another Location

Airport or City:

Trip Planner

Search our weather history database for the weather conditions in past years. The results will help you decide how hot, cold, wet, or windy it might be!

Date:

Astronomy

Oct. 19, 2012 Rise Set
Actual Time 7:21 AM EDT 6:48 PM EDT
Civil Twilight 6:58 AM EDT 7:11 PM EDT
Nautical Twilight 6:31 AM EDT 7:38 PM EDT
Astronomical Twilight 6:04 AM EDT 8:05 PM EDT
Moon 11:44 AM EDT (10/19) 10:43 PM EDT (10/19)
Length of Visible Light 12h 13m
Length of Day
11h 26m
Waxing Crescent, 23% of the Moon is Illuminated
Oct 19
Waxing Crescent
Oct 21
First Quarter
Oct 29
Full
Nov 6
Last Quarter
Nov 13
New

Hourly Weather History & Observations

Time (EDT) Temp. Heat Index Dew Point Humidity Pressure Visibility Wind Dir Wind Speed Gust Speed Precip Events Conditions
12:53 AM 78.1 °F - 75.0 °F 90% 29.87 in 10.0 mi Calm Calm - N/A   Clear
1:53 AM 77.0 °F - 75.0 °F 94% 29.86 in 10.0 mi Calm Calm - N/A   Clear
2:53 AM 78.1 °F - 75.0 °F 90% 29.84 in 10.0 mi Calm Calm - N/A   Clear
3:53 AM 77.0 °F - 75.0 °F 94% 29.84 in 10.0 mi Calm Calm - N/A   Clear
4:53 AM 77.0 °F - 75.0 °F 94% 29.84 in 10.0 mi Calm Calm - N/A   Partly Cloudy
5:53 AM 75.9 °F - 75.0 °F 97% 29.85 in 10.0 mi Calm Calm - N/A   Partly Cloudy
6:53 AM 78.1 °F - 75.9 °F 93% 29.85 in 10.0 mi Calm Calm - N/A   Partly Cloudy
7:53 AM 77.0 °F - 75.0 °F 94% 29.86 in 9.0 mi Calm Calm - N/A   Partly Cloudy
8:53 AM 80.1 °F 85.4 °F 75.9 °F 87% 29.88 in 10.0 mi Calm Calm - N/A   Partly Cloudy
9:53 AM 84.0 °F 92.6 °F 75.9 °F 76% 29.89 in 10.0 mi NW 4.6 mph - N/A   Scattered Clouds
10:53 AM 84.0 °F 91.9 °F 75.0 °F 74% 29.89 in 10.0 mi Calm Calm - N/A   Mostly Cloudy
11:25 AM 82.4 °F 88.2 °F 73.4 °F 74% 29.89 in 10.0 mi WNW 5.8 mph - N/A   Overcast
11:53 AM 77.0 °F - 72.0 °F 84% 29.89 in 7.0 mi West 12.7 mph - 0.01 in Rain Light Rain
12:00 PM 75.2 °F - 73.4 °F 94% 29.90 in 3.0 mi West 3.5 mph - 0.02 in Rain Rain
12:05 PM 77.0 °F - 73.4 °F 89% 29.90 in 10.0 mi Calm Calm - 0.03 in Rain , Thunderstorm Light Thunderstorms and Rain
12:53 PM 80.1 °F 84.2 °F 73.0 °F 79% 29.88 in 10.0 mi East 6.9 mph - 0.03 in   Mostly Cloudy
1:53 PM 82.9 °F 89.4 °F 73.9 °F 74% 29.86 in 10.0 mi ESE 6.9 mph - N/A   Mostly Cloudy
2:53 PM 82.0 °F 87.9 °F 73.9 °F 76% 29.83 in 10.0 mi ESE 5.8 mph - N/A   Scattered Clouds
3:53 PM 82.0 °F 86.3 °F 71.1 °F 69% 29.83 in 10.0 mi SSW 5.8 mph - N/A   Scattered Clouds
4:53 PM 82.0 °F 85.9 °F 70.0 °F 67% 29.83 in 10.0 mi South 4.6 mph - N/A   Mostly Cloudy
5:53 PM 82.0 °F 85.9 °F 70.0 °F 67% 29.81 in 10.0 mi South 8.1 mph - N/A   Scattered Clouds
6:53 PM 80.1 °F 84.2 °F 73.0 °F 79% 29.84 in 10.0 mi South 4.6 mph - N/A   Scattered Clouds
7:53 PM 79.0 °F - 73.0 °F 82% 29.85 in 10.0 mi SSE 4.6 mph - N/A   Clear
8:53 PM 79.0 °F - 73.9 °F 84% 29.88 in 10.0 mi SSE 5.8 mph - N/A   Scattered Clouds
9:53 PM 80.1 °F 84.5 °F 73.9 °F 81% 29.89 in 10.0 mi Calm Calm - N/A   Mostly Cloudy
10:53 PM 78.1 °F - 73.9 °F 87% 29.89 in 10.0 mi South 3.5 mph - N/A   Partly Cloudy
11:53 PM 78.1 °F - 73.9 °F 87% 29.88 in 10.0 mi South 3.5 mph - N/A   Partly Cloudy